FENGYUN 1C DEB

Satellite information

Favourite Embed

Satellite Type and Status

DEBRISIN ORBIT

Key statistics

Satellite FENGYUN 1C DEB at a glance.

Uptime

9609

Days in orbit

Revolutions

≈ 13.7

Per day

Orbit

SSO

Sun Synchronous Orbit

Inclination

102.7

Latest

Satellite identification and parameters

Extended collection of information and parameters for FENGYUN 1C DEB.

Object identification

Identified? True

Debris? True

Object name: FENGYUN 1C DEB

International designator: 1999-025DZX

Object number (NORAD): 36701

Object ID (CCSDS): 36701

Country: PEOPLES REPUBLIC OF CHINA (PRC)

Current information (Y/N): Y

RCS size: SMALL

Orbital parameters

Period: 105.088 minutes

Inclination: 102.7406 deg

SMA: 7376.714 km

Apoapsis: 1189.668 km

Periapsis: 807.49 km

RAAN: 151.3061 deg

Eccentricy: 0.02590439

Argument of periapsis: 149.3563 deg

Mean anomaly: 212.2992 deg

Mean motion: 13.70276976 rev/day

Mean motion (dot): 0.00001509 rev/day2

B* drag term: 0.0014111151 1/REarth

Two-line elements (TLE)

Creation date: Aug. 22, 2025, 9:09 p.m.

Reference frame: TEME

Reference center: EARTH

Epoch: Aug. 21, 2025, 11:59 a.m. UTC

TLE line 0: 0 FENGYUN 1C DEB

TLE line 1: 1 36701U 99025DZX 25233.49986338 .00001509 00000-0 14111-2 0 9992

TLE line 2: 2 36701 102.7406 151.3061 0259044 149.3563 212.2992 13.70276976595870

Live tracking on map

Real-time ground track for satellite FENGYUN 1C DEB.

In-orbit conjunctions

A list of the most updated potential collisions computed for object FENGYUN 1C DEB.

Target Orbit TCA Probability of collision Miss distance Type
DELTA 1 DEB SSO 2025-05-15 07:14:11 0.0001250692 260.0 (m) DEBRIS
COSMOS 2173 LEO 2025-05-15 03:52:19 0.0002987725 933.0 (m) PAYLOAD
CZ-6A DEB LEO 2024-11-10 16:49:02 0.0006042963 102.0 (m) DEBRIS

Associated space launch

Chinese polar orbiting meteorological satellite

FENGYUN 1C DEB was lifted into orbit during the mission ‘Long March 4B | Feng Yun 1C’, on board a Long March 4B space rocket.

The launch took place on May 10, 1999, 1:33 a.m. from Launch Complex 7.

For more information about the launch, click the button.

Launch to space Long March 4B | Feng Yun 1C
Long March 4B | Feng Yun 1C

Agency: N/A

Status: Launch Successful

Launch date: May 10, 1999, 1:33 a.m. UTC

Rocket: Long March 4B

Launch pad: Launch Complex 7

Location: Taiyuan Satellite Launch Center, People's Republic of China

...

Latest news about this satellite

There are no fresh news available about this satellite. Check back as we update our databases every day.


Newsletter sign-up

Weekly statistics, charts and insights to help you stay on top of the space industry.